Topeka, KS

7:43 PM CST on December 15, 2017 (GMT -0600)
Billard Municipal

Weather History for KTOP - October, 2012

Change the Weather History Date:

Friday, October 19, 2012

  Actual Average Record
Temperature  
Mean Temperature 50 °F 56 °F  
Max Temperature 59 °F 67 °F 88 °F (1963)
Min Temperature 40 °F 44 °F 20 °F (1972)
Degree Days  
Heating Degree Days 15 10  
Month to date heating degree days 176 145  
Since 1 July heating degree days 229 212  
Cooling Degree Days 0 1  
Month to date cooling degree days 9 25  
Year to date cooling degree days 1943 1418  
Growing Degree Days 1 (Base 50)    
Moisture  
Dew Point 37 °F    
Average Humidity 68    
Maximum Humidity 89    
Minimum Humidity 46    
Precipitation  
Precipitation T in 0.10 in 1.84 in (1983)
Month to date precipitation 1.38 1.97  
Year to date precipitation 20.96 32.20  
Snow  
Snow 0.00 in 0.00 in 0.10 in (1916)
Month to date snowfall 0.0 0.1  
Year to date snowfall 3.0 11.4  
Since 1 July snowfall 0.0 0.1  
Snow Depth 0.00 in    
Sea Level Pressure  
Sea Level Pressure 29.78 in    
Wind  
Wind Speed 11 mph (WNW)    
Max Wind Speed 28 mph    
Max Gust Speed 38 mph    
Visibility 10 miles    
Events Rain    
T = Trace of Precipitation, MM = Missing Value Source: NWS Daily Summary

Daily Weather History Graph

Daily Weather History Graph

Search for Another Location

Airport or City:

Trip Planner

Search our weather history database for the weather conditions in past years. The results will help you decide how hot, cold, wet, or windy it might be!

Date:

Astronomy

Oct. 19, 2012 Rise Set
Actual Time 7:36 AM CDT 6:37 PM CDT
Civil Twilight 7:09 AM CDT 7:04 PM CDT
Nautical Twilight 6:38 AM CDT 7:35 PM CDT
Astronomical Twilight 6:07 AM CDT 8:06 PM CDT
Moon 12:18 PM CDT (10/19) 10:18 PM CDT (10/19)
Length of Visible Light 11h 54m
Length of Day
11h 00m
Waxing Crescent, 24% of the Moon is Illuminated
Oct 19
Waxing Crescent
Oct 21
First Quarter
Oct 29
Full
Nov 6
Last Quarter
Nov 13
New

Hourly Weather History & Observations

Time (CDT) Temp. Dew Point Humidity Pressure Visibility Wind Dir Wind Speed Gust Speed Precip Events Conditions
12:53 AM 54.0 °F 34.0 °F 47% 29.71 in 10.0 mi WNW 26.5 mph 34.5 mph N/A   Overcast
1:53 AM 54.0 °F 34.0 °F 47% 29.71 in 10.0 mi WNW 17.3 mph 25.3 mph N/A   Overcast
2:53 AM 53.1 °F 34.0 °F 48% 29.71 in 10.0 mi NW 19.6 mph 28.8 mph N/A   Overcast
3:53 AM 53.1 °F 34.0 °F 48% 29.70 in 10.0 mi WNW 23.0 mph 34.5 mph 0.00 in Rain Light Rain
4:53 AM 52.0 °F 35.1 °F 53% 29.70 in 10.0 mi WNW 16.1 mph 29.9 mph 0.00 in   Overcast
5:53 AM 52.0 °F 35.1 °F 53% 29.73 in 10.0 mi WNW 16.1 mph 26.5 mph N/A   Overcast
6:53 AM 51.1 °F 36.0 °F 56% 29.73 in 10.0 mi WNW 15.0 mph 26.5 mph N/A   Overcast
7:53 AM 51.1 °F 35.1 °F 54% 29.75 in 10.0 mi NW 17.3 mph 27.6 mph N/A   Overcast
8:53 AM 50.0 °F 35.1 °F 57% 29.78 in 10.0 mi NW 18.4 mph 26.5 mph N/A   Overcast
9:53 AM 51.1 °F 36.0 °F 56% 29.80 in 10.0 mi WNW 16.1 mph 24.2 mph N/A   Overcast
10:53 AM 51.1 °F 37.0 °F 59% 29.82 in 10.0 mi NW 19.6 mph 25.3 mph N/A   Overcast
11:53 AM 52.0 °F 37.0 °F 57% 29.84 in 10.0 mi NW 13.8 mph 25.3 mph N/A   Overcast
12:53 PM 53.1 °F 37.0 °F 55% 29.83 in 10.0 mi NW 16.1 mph - N/A   Overcast
1:53 PM 55.0 °F 37.9 °F 53% 29.82 in 10.0 mi NW 12.7 mph 23.0 mph N/A   Overcast
2:53 PM 55.9 °F 37.9 °F 51% 29.82 in 10.0 mi WNW 13.8 mph - N/A   Overcast
3:53 PM 57.9 °F 39.0 °F 49% 29.81 in 10.0 mi NW 10.4 mph - N/A   Overcast
4:53 PM 57.9 °F 39.0 °F 49% 29.81 in 10.0 mi WNW 10.4 mph - N/A   Overcast
5:53 PM 57.9 °F 39.0 °F 49% 29.81 in 10.0 mi WNW 8.1 mph - N/A   Overcast
6:53 PM 57.9 °F 39.0 °F 49% 29.81 in 10.0 mi Calm Calm - N/A   Overcast
7:53 PM 52.0 °F 41.0 °F 66% 29.83 in 10.0 mi Calm Calm - N/A   Overcast
8:53 PM 50.0 °F 39.9 °F 68% 29.83 in 10.0 mi Calm Calm - N/A   Clear
9:53 PM 46.0 °F 39.0 °F 76% 29.84 in 10.0 mi Calm Calm - N/A   Clear
10:53 PM 43.0 °F 39.0 °F 86% 29.84 in 10.0 mi Calm Calm - N/A   Clear
11:53 PM 43.0 °F 39.0 °F 86% 29.85 in 10.0 mi Calm Calm - N/A   Clear